Regional Weather Roundup
Issued by NWS

Home | Current Version | Previous Version | Text Only | Print | Product List | Glossary On
Versions: 1 2 3 4 5 6 7 8 9 10 11 12 13 14 15 16 17 18 19 20 21 22 23 24 25 26 27 28 29 30 31 32 33 34 35 36 37 38 39 40 41 42 43 44 45 46 47 48 49 50
000
ASUS43 KTOP 270059
RWRKS

WEATHER ROUNDUP FOR KANSAS
NATIONAL WEATHER SERVICE GOODLAND KS
800 PM CDT THU MAY 26 2016

NOTE:  "FAIR" INDICATES FEW OR NO CLOUDS BELOW 12,000 FEET WITH NO
SIGNIFICANT WEATHER AND/OR OBSTRUCTIONS TO VISIBILITY.

KSZ001>006-013>018-027>032-041>047-270200-
NORTHWEST KANSAS

CITY           SKY/WX    TMP DP  RH WIND       PRES   REMARKS
HAYS           CLOUDY    36 N/A N/A SE13      29.59F THUNDER WCI  27
HILL CITY      CLOUDY    68  58  70 NE12      29.63R
RUSSELL        TSTM      62  56  80 E6        29.70R VSB 1
$$

KSZ061>065-074>080-084>089-270200-
SOUTHWEST KANSAS

CITY           SKY/WX    TMP DP  RH WIND       PRES   REMARKS
DODGE CITY     CLOUDY    74  45  35 SE20G31   29.56R
ELKHART          N/A     83  26  12 SW15        N/A
GARDEN CITY    CLOUDY    84  34  16 SW17G24   29.57R
GREAT BEND     CLOUDY    66  57  72 NW15      29.65R THUNDER
LIBERAL        CLEAR     82  30  15 SW13      29.60S
$$

KSZ066>073-081>083-090>101-270200-
SOUTHEAST KANSAS

CITY           SKY/WX    TMP DP  RH WIND       PRES   REMARKS
CHANUTE        PTCLDY    79  69  71 S24G31    29.76S
COFFEYVILLE    CLEAR     78  69  73 S14G26    29.75F
HUTCHINSON     CLOUDY    67  63  87 NE6       29.69R
MEDICINE LODGE   N/A     82  61  48 S17G25    29.60R
NEWTON         CLOUDY    66  57  72 NE9G17    29.75F
PARSONS        CLEAR     78  69  73 S10G20    29.76F
WICHITA INTL   PTCLDY    81  65  58 S17       29.67R
WICHITA JABRA  CLOUDY    78  70  76 SE15      29.69R
WINFIELD       PTCLDY    79  66  64 S29G39    29.70R
$$

KSZ007>012-019>026-033>040-048>060-102>105-270200-
NORTHEAST KANSAS

CITY           SKY/WX    TMP DP  RH WIND       PRES   REMARKS
CONCORDIA      CLOUDY    64  59  83 E12       29.71R
EMPORIA        TSTM      64  62  93 N26G39    29.78R
LAWRENCE       CLOUDY    63  61  93 E18G26    29.78F
MANHATTAN      LGT RAIN  65  62  90 E14       29.77F
OLATHE IND     TSTM      63  61  93 NE15      29.81S
OLATHE EXE     CLOUDY    63  60  90 NE16G22   29.85R
SALINA         TSTM      66  61  84 E14       29.73R
TOPEKA BILLARD TSTM      64  60  87 N28G35    29.79S FOG
TOPEKA FORBES  TSTM      64  60  87 N16G40    29.80R FOG
$$



USA.gov is the U.S. government's official web portal to all federal, state and local government web resources and services.